Regional Weather Roundup
Issued by NWS

Home | Current Version | Previous Version | Graphics & Text | Print | Product List | Glossary On
Versions: 1 2 3 4 5 6 7 8 9 10 11 12 13 14 15 16 17 18 19 20 21 22 23 24 25 26 27 28 29 30 31 32 33 34 35 36 37 38 39 40 41 42 43 44 45 46 47 48 49 50
000
ASUS45 KABQ 260001
RWRNM
NEW MEXICO REGIONAL WEATHER ROUNDUP
NATIONAL WEATHER SERVICE ALBUQUERQUE NM
600 PM MDT MON SEP 25 2017

NOTE: "FAIR" MEANS FEW OR NO CLOUDS BELOW 12,000 FEET AGL WITH NO
       SIGNIFICANT WEATHER OR OBSTRUCTIONS TO VISION.

      THIS PRODUCT IS RELEASED AS TWO VERSIONS.  ONE VERSION NEAR
      THE TOP OF THE HOUR CONTAINING PRELIMINARY DATA FROM ALBUQUERQUE
      AND OTHER STATIONS.  A FINAL VERSION WITH ADDITIONAL DATA IS
      ISSUED ABOUT 10 MINUTES AFTER THE HOUR.

NMZ501-503-504-510>518-260100-
NORTHWEST PLATEAU/NORTHCENTRAL MOUNTAINS

CITY           SKY/WX    TMP DP  RH WIND       PRES   REMARKS
FARMINGTON     FAIR      65  13  13 W10       29.97F
6HR MIN TEMP:  57; 6HR MAX TEMP:  66;

LOS ALAMOS     FAIR      66  10  11 E9        30.02R
SANTA FE       FAIR      68  12  11 SW12      29.97S
6HR MIN TEMP:  67; 6HR MAX TEMP:  72;

TAOS           FAIR      66  19  16 SW15      30.03S
ANGEL FIRE     FAIR      55  40  56 S9        30.10R

$$
NMZ402-403-502-505>509-260100-
WESTCENTRAL MOUNTAINS/SOUTHWEST MOUNTAINS

CITY           SKY/WX    TMP DP  RH WIND       PRES   REMARKS
GALLUP         FAIR      66   7  10 CALM      30.00S
6HR MIN TEMP:  62; 6HR MAX TEMP:  69;

GRANTS         FAIR      68  13  12 N10       30.00S
SILVER CITY    FAIR      74  22  14 SW10G18   29.92R

$$
NMZ407-409-411-412-260100-
SOUTHERN DESERTS

CITY           SKY/WX    TMP DP  RH WIND       PRES   REMARKS
DEMING         FAIR      80  25  13 W12       29.85R
6HR MIN TEMP:  77; 6HR MAX TEMP:  84;

LAS CRUCES     FAIR      82  21  10 SW5       29.86S
HOLLOMAN AFB   FAIR      83  23  11 W8        29.82S
ALAMOGORDO     FAIR      82  28  14 SW12      29.82S
T OR C         FAIR      81  24  12 S6        29.83F
6HR MIN TEMP:  75; 6HR MAX TEMP:  82;


$$
NMZ519>523-260100-
CENTRAL VALLEYS/CENTRAL HIGHLANDS

CITY           SKY/WX    TMP DP  RH WIND       PRES   REMARKS
ALBUQUERQUE    FAIR      74  13   9 N12       29.92F
6HR MIN TEMP:  66; 6HR MAX TEMP:  75;

DOUBLE EAGLE   SUNNY     72  18  13 VRB7      29.96
MORIARTY ARPT  FAIR      73  15  11 W8        29.98S
6HR MIN TEMP:  71; 6HR MAX TEMP:  77;

CLINES CORNERS FAIR      69  17  13 W10       30.01R
6HR MIN TEMP:  66; 6HR MAX TEMP:  73;

BELEN          FAIR      75  18  12 E9        29.90S
6HR MIN TEMP:  70; 6HR MAX TEMP:  77;

SOCORRO        FAIR      78  21  12 NE5       29.87R
6HR MIN TEMP:  70; 6HR MAX TEMP:  79;


$$
NMZ524>526-539-540-260100-
SOUTHCENTRAL MOUNTAINS

CITY           SKY/WX    TMP DP  RH WIND       PRES   REMARKS
RUIDOSO        FAIR      70  19  14 SW14      30.00S

$$
NMZ527>531-260100-
NORTHEAST HIGHLANDS/NORTHEAST PLAINS

CITY           SKY/WX    TMP DP  RH WIND       PRES   REMARKS
LAS VEGAS      FAIR      61  51  70 SE20      30.00R
6HR MIN TEMP:  61; 6HR MAX TEMP:  70;

RATON          NOT AVBL
CLAYTON        CLOUDY    53  51  93 N14       30.02R
6HR MIN TEMP:  51; 6HR MAX TEMP:  58; 6HR PCP:  0.04;


$$
NMZ532>537-260100-
EASTCENTRAL PLAINS

CITY           SKY/WX    TMP DP  RH WIND       PRES   REMARKS
SANTA ROSA     FAIR      66  56  70 E15       29.90R
TUCUMCARI      FAIR      68  56  65 E21G26    29.89S
6HR MIN TEMP:  65; 6HR MAX TEMP:  71;

CANNON AFB     TSTM      64  64 100 S13       29.92R
CLOVIS AIRPORT LGT RAIN  65  60  84 E10       29.91R

$$
NMZ028-029-538-260100-
SOUTHEAST PLAINS

CITY           SKY/WX    TMP DP  RH WIND       PRES   REMARKS
ROSWELL        FAIR      79  62  56 SE8       29.80R
6HR MIN TEMP:  74; 6HR MAX TEMP:  82;

ARTESIA        FAIR      79  63  57 SE18      29.78S
CARLSBAD       FAIR      80  68  66 E14       29.77S
6HR MIN TEMP:  69; 6HR MAX TEMP:  82;

HOBBS          PTCLDY    73  66  78 SE13      29.84S


$$




USA.gov is the U.S. government's official web portal to all federal, state and local government web resources and services.